Location: Unspecified
(47.9110°N, 14.3980°E)
Time: 10:16:24
(UTC+00:00)

Cosmos 1441 Rocket - Pass Details

Date: 06 August 2020
Orbit: 497 x 540 km, 81.1° (Epoch: 20 September)

Event Time Altitude Azimuth Distance (km) Brightness Sun altitude
Exits shadow 20:01:32 - 195° (SSW) 2,285 6.2 -13.4°
Reaches altitude 10° 20:02:51 10° 196° (SSW) 1,738 5.6 -13.6°
Maximum altitude 20:06:39 75° 281° (W) 534 3.3 -14.0°
Drops below altitude 10° 20:10:27 10° 8° (N) 1,730 6.4 -14.5°
Sets 20:12:35 0° 11° (N) 2,614 7.3 -14.7°
